[[{"header":{"parameterUnit":"m.s-1","parameterCategory":1,"la1":30.2991,"la2":30.254,"lo1":-89.0895,"lo2":-89.0444,"dy":0.0017,"dx":0.0017,"nx":28,"ny":28,"refTime":"2024-02-11T03:00:00:Z","depth":0,"parameterNumber":2,"parameterNumberName":"U-component_of_WINDS"},"data":[0,0,0,0,0,0,0,0,0,0,0,0,0,0,0,0,0,0,0,0,0,0,0,0,0,0,0,0,0,0,0,0,0,0,0,0,0,0,0,0,0,0,0,0,0,0,0,0,0,0,0,0,0,0,0,0,0,0,-0.284,-0.2839,0,-0.2757,-0.2756,-0.2756,-0.2729,-0.273,-0.273,-0.2731,-0.2642,-0.264,-0.2637,0,0,0,0,0,0,0,0,0,0,0,0,0,-0.2972,-0.297,-0.284,-0.2839,-0.2838,-0.2758,-0.2756,-0.2755,-0.2729,-0.273,-0.273,-0.2731,-0.2643,-0.264,-0.2637,0,0,0,0,0,0,0,0,0,0,0,0,0,-0.2904,-0.2969,-0.284,-0.2816,-0.2813,-0.2758,-0.2756,-0.2755,-0.2729,-0.273,-0.2731,-0.2731,-0.2644,-0.264,-0.2636,-0.2599,0,0,-0.2624,-0.2622,0,0,0,0,0,0,0,0,-0.2908,-0.29,-0.282,-0.2817,-0.2814,-0.2754,-0.2771,-0.2703,-0.2729,-0.2761,-0.2731,-0.2731,-0.2679,-0.2672,-0.2655,-0.2595,-0.2591,-0.2624,-0.2621,-0.2619,-0.2618,0,0,0,0,0,0,0,-0.2913,-0.2903,-0.2807,-0.2819,-0.2815,-0.2807,-0.2798,-0.2758,-0.2717,-0.2758,-0.2756,-0.2747,-0.2677,-0.2659,-0.2653,-0.259,-0.2624,-0.262,-0.2618,-0.2616,-0.2494,-0.2494,0,0,0,0,0,0,-0.2922,-0.2907,-0.281,-0.2805,-0.2864,-0.2805,-0.2795,-0.2773,-0.2718,-0.271,-0.2746,-0.2746,-0.2666,-0.2658,-0.265,-0.2602,-0.2619,-0.2616,-0.2613,-0.2495,-0.2494,-0.2493,0,0,0,0,0,0,-0.2925,-0.2914,-0.2813,-0.2855,-0.2842,-0.2802,-0.2777,-0.2771,-0.2753,-0.2709,-0.2701,-0.2735,-0.2666,-0.2655,-0.2612,-0.2598,-0.2614,-0.261,-0.2496,-0.2495,-0.2494,-0.2506,0,0,0,0,0,0,-0.2929,-0.2915,-0.2902,-0.2855,-0.284,-0.2778,-0.2777,-0.2769,-0.2746,-0.2745,-0.2697,-0.2689,-0.2666,-0.2618,-0.2608,-0.2593,-0.2607,-0.2497,-0.2496,-0.2494,-0.2507,-0.2505,-0.2504,0,0,0,0,0,-0.2934,-0.2908,-0.2901,-0.2889,-0.2822,-0.2777,-0.2768,-0.2743,-0.2745,-0.273,-0.2702,-0.2691,-0.2602,-0.2614,-0.2602,-0.2586,-0.2498,-0.2496,-0.2494,-0.2507,-0.2506,-0.2504,0,0,0,0,0,0,-0.2952,-0.2901,-0.2893,-0.2851,-0.2819,-0.2773,-0.2754,-0.2742,-0.2707,-0.2707,-0.2676,-0.2665,-0.2624,-0.2601,-0.2615,-0.2546,-0.2549,-0.2545,-0.2563,-0.2561,-0.256,-0.2566,-0.2604,0,0,0,0,0,-0.2952,-0.2921,-0.2877,-0.2845,-0.2829,-0.2794,-0.2774,-0.2757,-0.2722,-0.2707,-0.2676,-0.2641,-0.2605,-0.2582,-0.2547,-0.2504,-0.2492,-0.2486,-0.2485,-0.2485,-0.2481,-0.2455,-0.2452,-0.2488,-0.2488,-0.2488,0,0,-0.295,-0.2918,-0.29,-0.2847,-0.282,-0.2788,-0.2783,-0.2749,-0.2724,-0.2702,-0.2659,-0.2635,-0.2594,-0.255,-0.2529,-0.2529,-0.2469,-0.2482,-0.2482,-0.2478,-0.2453,-0.2449,-0.2446,-0.2486,-0.2487,-0.2487,0,0,-0.2929,-0.2903,-0.2872,-0.2845,-0.2804,-0.2781,-0.2774,-0.273,-0.2713,-0.267,-0.2653,-0.2622,-0.2561,-0.2533,-0.251,-0.2479,-0.2466,-0.2468,-0.2461,-0.2437,-0.2434,-0.2431,-0.2418,-0.2415,-0.2465,-0.2465,-0.2465,0,-0.2931,-0.2882,-0.2857,-0.2824,-0.28,-0.2781,-0.2748,-0.2723,-0.2673,-0.2657,-0.2658,-0.2581,-0.2552,-0.2501,-0.2493,-0.2476,-0.2465,-0.2472,-0.2437,-0.2433,-0.2431,-0.2418,-0.2414,-0.2465,-0.2465,-0.2465,-0.2465,0,-0.2886,-0.2852,-0.2832,-0.2785,-0.276,-0.2727,-0.2696,-0.2673,-0.2659,-0.2635,-0.2591,-0.2556,-0.2512,-0.2499,-0.2484,-0.2446,-0.2447,-0.2443,-0.2445,-0.2428,-0.2416,-0.2411,-0.2466,-0.2465,-0.2465,-0.2465,0,0,-0.2874,-0.2813,-0.2806,-0.2784,-0.2738,-0.2711,-0.2677,-0.2636,-0.2616,-0.2582,-0.2552,-0.2501,-0.2497,-0.2471,-0.2453,-0.2432,-0.2407,-0.243,-0.2428,-0.2426,-0.2361,-0.2363,-0.2358,-0.24,-0.2399,-0.2398,-0.2364,0,-0.2846,-0.2785,-0.2762,-0.2712,-0.268,-0.2661,-0.2631,-0.2599,-0.2576,-0.2544,-0.2519,-0.2483,-0.2481,-0.2465,-0.2443,-0.2415,-0.2394,-0.2417,-0.237,-0.2368,-0.2379,-0.2352,-0.2354,-0.2324,-0.2359,-0.2358,-0.2358,0,-0.2805,-0.2772,-0.2719,-0.2676,-0.2662,-0.2635,-0.2595,-0.2566,-0.2529,-0.2514,-0.2485,-0.2469,-0.2431,-0.2437,-0.2384,-0.24,-0.238,-0.2363,-0.2361,-0.2354,-0.2361,-0.2343,-0.2314,-0.2309,-0.235,-0.2351,-0.2351,0,-0.28,-0.2741,-0.2702,-0.2684,-0.2633,-0.2615,-0.2593,-0.2556,-0.2533,-0.2498,-0.2482,-0.2443,-0.2421,-0.239,-0.2363,-0.2369,-0.2312,-0.2315,-0.2297,-0.2298,-0.2284,-0.2285,-0.225,-0.2274,-0.2274,-0.2274,-0.2274,0,-0.277,-0.2738,-0.2699,-0.2674,-0.2637,-0.261,-0.2574,-0.2551,-0.2519,-0.2488,-0.247,-0.2441,-0.2408,-0.2375,-0.2353,-0.2312,-0.2303,-0.2288,-0.2283,-0.2289,-0.2291,-0.2274,-0.2274,-0.2273,-0.2273,-0.2273,-0.2273,0,-0.2757,-0.273,-0.2685,-0.2641,-0.2629,-0.2604,-0.2566,-0.2541,-0.2518,-0.248,-0.2469,-0.2432,-0.2393,-0.2363,-0.2311,-0.2297,-0.2252,-0.2247,-0.2265,-0.2262,-0.2245,-0.2246,-0.2196,-0.2187,-0.2219,-0.2218,-0.2218,0,-0.274,-0.2715,-0.2668,-0.2647,-0.2625,-0.2592,-0.2568,-0.254,-0.2516,-0.2471,-0.2451,-0.2411,-0.2376,-0.2314,-0.2282,-0.2242,-0.2235,-0.222,-0.2229,-0.2236,-0.2233,-0.2234,-0.2231,-0.2218,-0.2218,-0.2218,-0.2218,0,-0.2711,-0.2698,-0.2665,-0.2627,-0.2599,-0.2567,-0.2535,-0.2519,-0.2485,-0.2458,-0.2418,-0.2392,-0.234,-0.2299,-0.2256,-0.2232,-0.2219,-0.2216,-0.2209,-0.2214,-0.2225,-0.2218,-0.226,-0.2216,-0.2217,-0.2217,-0.2217,-0.2217,-0.2694,-0.267,-0.2634,-0.2597,-0.257,-0.254,-0.2515,-0.2488,-0.2455,-0.241,-0.2396,-0.2354,-0.2317,-0.2258,-0.2234,-0.22,-0.22,-0.219,-0.2188,-0.2185,-0.2185,-0.2232,-0.2192,-0.2192,-0.2192,-0.2192,-0.2192,0,-0.2662,-0.2638,-0.2605,-0.2561,-0.2531,-0.2523,-0.2487,-0.2463,-0.2426,-0.2393,-0.236,-0.2313,-0.2274,-0.2239,-0.2198,-0.2177,-0.217,-0.2167,-0.2168,-0.2162,-0.2188,-0.2198,-0.2174,-0.2174,-0.2174,-0.2174,-0.2174,-0.2174,-0.2643,-0.2602,-0.2585,-0.2531,-0.2506,-0.2466,-0.2446,-0.2418,-0.2391,-0.234,-0.2307,-0.2285,-0.2251,-0.2207,-0.217,-0.2161,-0.2146,-0.2144,-0.2133,-0.2158,-0.216,-0.2162,-0.2171,-0.2142,-0.2142,-0.2109,-0.2109,-0.2109]},{"header":{"parameterUnit":"m.s-1","parameterCategory":1,"la1":30.2991,"la2":30.254,"lo1":-89.0895,"lo2":-89.0444,"dy":0.0017,"dx":0.0017,"nx":28,"ny":28,"refTime":"2024-02-11T03:00:00:Z","depth":0,"parameterNumber":3,"parameterNumberName":"V-component_of_WINDS"},"data":[0,0,0,0,0,0,0,0,0,0,0,0,0,0,0,0,0,0,0,0,0,0,0,0,0,0,0,0,0,0,0,0,0,0,0,0,0,0,0,0,0,0,0,0,0,0,0,0,0,0,0,0,0,0,0,0,0,0,2.7717,2.7718,0,2.7839,2.784,2.7841,2.786,2.7859,2.7858,2.7857,2.798,2.7984,2.7989,0,0,0,0,0,0,0,0,0,0,0,0,0,2.75,2.7504,2.7717,2.7718,2.772,2.7838,2.784,2.7842,2.786,2.7859,2.7857,2.7856,2.7979,2.7984,2.7989,0,0,0,0,0,0,0,0,0,0,0,0,0,2.7605,2.7506,2.7717,2.7743,2.7747,2.7838,2.784,2.7842,2.786,2.7859,2.7857,2.7856,2.7977,2.7983,2.799,2.8062,0,0,2.8009,2.8012,0,0,0,0,0,0,0,0,2.7599,2.7613,2.7738,2.7742,2.7746,2.7832,2.7809,2.7916,2.7861,2.7817,2.7857,2.7855,2.7932,2.7942,2.7969,2.8068,2.8073,2.801,2.8014,2.8017,2.8018,0,0,0,0,0,0,0,2.7592,2.7608,2.7765,2.774,2.7745,2.7749,2.7762,2.7829,2.7882,2.7821,2.7823,2.7837,2.7934,2.7962,2.7972,2.8075,2.801,2.8015,2.8019,2.8022,2.8241,2.8243,0,0,0,0,0,0,2.758,2.7602,2.7761,2.7769,2.7667,2.7755,2.7769,2.7806,2.7882,2.7892,2.7838,2.7837,2.7952,2.7964,2.7976,2.8068,2.8017,2.8023,2.8026,2.8239,2.8242,2.8244,0,0,0,0,0,0,2.7575,2.7594,2.7756,2.7686,2.7707,2.776,2.7802,2.781,2.7838,2.7895,2.7904,2.7857,2.7951,2.7967,2.8041,2.8072,2.8025,2.8031,2.8237,2.824,2.8243,2.825,0,0,0,0,0,0,2.7569,2.7592,2.7621,2.7686,2.7711,2.7819,2.7803,2.7813,2.7849,2.7849,2.7915,2.7925,2.7951,2.8031,2.8047,2.808,2.8036,2.8234,2.8238,2.8242,2.8247,2.8253,2.8257,0,0,0,0,0,2.7561,2.7617,2.7622,2.7641,2.7747,2.7821,2.7835,2.7865,2.7851,2.7881,2.7917,2.7922,2.8065,2.8039,2.8057,2.8092,2.8233,2.8237,2.8241,2.8245,2.8252,2.8257,0,0,0,0,0,0,2.7553,2.7626,2.7632,2.7711,2.776,2.7824,2.7862,2.7871,2.7924,2.7922,2.7956,2.7971,2.8044,2.8075,2.8044,2.8167,2.8148,2.8156,2.8144,2.8151,2.8156,2.8148,2.8042,0,0,0,0,0,2.756,2.7615,2.7675,2.7739,2.7763,2.7808,2.7842,2.786,2.7912,2.7933,2.7975,2.8025,2.8081,2.8117,2.8172,2.8251,2.8266,2.8284,2.8289,2.8293,2.8301,2.8346,2.8355,2.8258,2.8258,2.8258,0,0,2.7576,2.7623,2.7655,2.7739,2.7779,2.7835,2.7825,2.7884,2.7927,2.7942,2.8015,2.8047,2.8105,2.8182,2.8218,2.8211,2.833,2.8299,2.8301,2.8307,2.8352,2.8361,2.8369,2.8261,2.8261,2.826,0,0,2.7634,2.7674,2.7732,2.7773,2.7834,2.7863,2.7877,2.794,2.7963,2.8037,2.805,2.81,2.8195,2.8237,2.827,2.8344,2.8352,2.8361,2.8388,2.8433,2.844,2.8447,2.8475,2.8485,2.8367,2.8367,2.8367,0,2.7646,2.7731,2.7761,2.7821,2.7857,2.7874,2.7934,2.7971,2.8047,2.8072,2.8062,2.8184,2.8223,2.8311,2.833,2.8355,2.8373,2.8354,2.8437,2.8444,2.8451,2.8478,2.8489,2.8368,2.8368,2.8368,2.8368,0,2.7744,2.7802,2.7842,2.7916,2.7957,2.8016,2.8055,2.8093,2.8108,2.8139,2.8214,2.8262,2.8328,2.835,2.8365,2.8441,2.8434,2.843,2.8412,2.8461,2.8487,2.8498,2.837,2.8369,2.8369,2.8369,0,0,2.7801,2.7891,2.7905,2.7939,2.8008,2.8054,2.8113,2.8178,2.8211,2.8262,2.8314,2.8395,2.8392,2.843,2.8449,2.8487,2.8545,2.8479,2.8481,2.8491,2.8634,2.8638,2.865,2.855,2.8552,2.8553,2.8629,0,2.7868,2.7977,2.8006,2.8098,2.8153,2.817,2.8222,2.827,2.83,2.8351,2.8383,2.8441,2.8432,2.8455,2.8493,2.853,2.8575,2.8525,2.8599,2.8602,2.8587,2.8663,2.8668,2.8738,2.864,2.8641,2.8643,0,2.7962,2.8017,2.8114,2.8177,2.8201,2.8248,2.8311,2.8359,2.8413,2.8432,2.8475,2.8491,2.8554,2.8531,2.862,2.8585,2.8617,2.8639,2.8643,2.8653,2.8627,2.8677,2.876,2.8772,2.8659,2.8658,2.8656,0,2.7997,2.8094,2.8166,2.8194,2.8269,2.8301,2.8334,2.8386,2.8424,2.8478,2.8503,2.8563,2.8596,2.8643,2.8674,2.8654,2.8761,2.874,2.8779,2.8779,2.8803,2.8801,2.8894,2.8819,2.8819,2.8819,2.8819,0,2.8071,2.8131,2.8183,2.8227,2.8295,2.8327,2.8393,2.8426,2.8473,2.8524,2.854,2.8588,2.8626,2.8678,2.8703,2.8774,2.8788,2.8806,2.8812,2.8806,2.8804,2.8829,2.8826,2.8822,2.8821,2.882,2.882,0,2.8122,2.8159,2.8239,2.8303,2.832,2.8367,2.8422,2.8466,2.8496,2.856,2.8577,2.8625,2.8688,2.8723,2.8802,2.8819,2.8898,2.89,2.888,2.8883,2.8921,2.8918,2.9036,2.9053,2.8964,2.8965,2.8966,0,2.8168,2.8215,2.8284,2.832,2.8353,2.841,2.8449,2.8482,2.8521,2.8587,2.8623,2.8687,2.8741,2.884,2.8881,2.8942,2.8948,2.8984,2.8957,2.8949,2.8951,2.8949,2.8954,2.899,2.8991,2.8991,2.8992,0,2.8247,2.8263,2.8318,2.8381,2.8427,2.8477,2.8527,2.8555,2.8596,2.864,2.8705,2.8746,2.8827,2.8891,2.8955,2.8988,2.8998,2.9,2.9013,2.9008,2.8995,2.9005,2.8895,2.8998,2.8997,2.8997,2.8996,2.8996,2.8298,2.8341,2.8397,2.8459,2.85,2.8546,2.8591,2.8627,2.8682,2.8751,2.8767,2.8836,2.8889,2.8976,2.9011,2.9065,2.9059,2.9076,2.9081,2.9086,2.9088,2.8984,2.9076,2.9076,2.9076,2.9076,2.9076,0,2.838,2.8416,2.8473,2.8543,2.8591,2.8596,2.8651,2.8692,2.8752,2.8802,2.8854,2.8929,2.8991,2.9037,2.91,2.9135,2.9141,2.915,2.9149,2.9157,2.9089,2.9073,2.9145,2.9145,2.9145,2.9144,2.9144,2.9144,2.8428,2.8502,2.8524,2.8618,2.8655,2.8723,2.8755,2.8798,2.8838,2.8921,2.8973,2.9003,2.9051,2.9118,2.9175,2.9187,2.921,2.922,2.9232,2.9169,2.9162,2.9155,2.914,2.9224,2.9224,2.9296,2.9297,2.9297]}]]